Flag for U.S.A. Weather past 2 weeks in St. Louis, Missouri, U.S.A.

Now
65 °F

Passing clouds.


Feels Like: 65 °F
Forecast: 59 / 73 °F
Wind: 9 mph from Northwest

Location: Lambert-St. Louis International Airport

Current Time: Sep 21, 2014 at 7:31:20 AM

Latest Report: Sep 21, 2014 at 6:51 AM


Visibility: 10 mi

Pressure: 29.97 "Hg

Humidity: 68%

Dew point: 54 °F

Location of St. LouisLocation

Historic Weather in St. Louis — Graph

°F

St. Louis temperature yesterday

Maximum temperature yesterday: 87 °F (at 3:51 PM)
Minimum temperature yesterday: 65 °F (at 6:51 AM)
Average temperature yesterday: 76 °F

Past Weeks' High & Low Weather Summary

 TemperatureHumidityPressure
High88 °F (Sep 9, 12:51 PM)94% (Sep 10, 5:57 PM)30.42 "Hg (Sep 10, 5:57 PM)
Low45 °F (Sep 13, 5:51 AM)37% (Sep 7, 3:51 PM)29.64 "Hg (Sep 10, 5:51 AM)
Average66 °F71%30.08 "Hg
* Reported Sep 6 4:51 AM — Sep 21 4:51 AM, St. Louis, Weather by CustomWeather, © 2014

Note: Actual official high and low records may vary slightly from our data, if they occured in-between our weather recording intervals... More about our weather records

Advertising

St. Louis weather history for previous 24 hours

 ConditionsComfort  
Time TempWeatherWind HumidityBarometerVisibility
4:51 AM
Sep 21
73 °FPassing clouds.10 mph84%29.90 "Hg10 mi
3:51 AM73 °FPassing clouds.10 mph88%29.88 "Hg10 mi
2:51 AM74 °FPassing clouds.9 mph82%29.87 "Hg10 mi
1:51 AM76 °FPassing clouds.12 mph77%29.87 "Hg10 mi
12:51 AM77 °FPartly cloudy.13 mph74%29.86 "Hg10 mi
11:51 PM
Sep 20
76 °FPassing clouds.7 mph74%29.88 "Hg10 mi
10:51 PM77 °FPassing clouds.7 mph71%29.89 "Hg10 mi
9:51 PM78 °FClear.7 mph69%29.89 "Hg10 mi
8:51 PM79 °FPassing clouds.7 mph67%29.90 "Hg10 mi
7:51 PM80 °FScattered clouds.7 mph64%29.89 "Hg10 mi
6:51 PM83 °FPartly sunny.9 mph59%29.89 "Hg10 mi
5:51 PM86 °FPartly sunny.9 mph53%29.88 "Hg10 mi
4:51 PM87 °FPartly sunny.9 mph53%29.88 "Hg10 mi
3:51 PM87 °FBroken clouds.10 mph53%29.90 "Hg10 mi
2:51 PM85 °FMore clouds than sun.12 mph59%29.90 "Hg10 mi
1:51 PM85 °FMore clouds than sun.13 mph59%29.93 "Hg10 mi
12:51 PM85 °FPartly sunny.16 mph61%29.94 "Hg10 mi
7:51 AM69 °FPartly sunny.5 mph79%30.01 "Hg10 mi
Weather by CustomWeather, © 2014

See weather overviewHow to use our weather pages